User: anonymous   Login
Location: Cran-Gévrier
(45.9039°N, 6.1012°E)
Time: 22:01:30
(UTC+00:00)
Language:

Okean O Rocket - Orbit

View from above orbital plane
View from above orbital plane
View from above satellite
View from above satellite

Ground track
Ground track

The orbit data is extracted from the following two-line orbital elements,

1 25861U 99039B   24176.19296847  .00000788  00000-0  11085-3 0  9999
2 25861  98.0879 222.2121 0016483 114.6662 245.6267 14.80132703344704
Epoch (UTC): 24 June 2024 04:37:52
Eccentricity: 0.0016483
inclination: 98.0879°
perigee height: 617 km
apogee height: 640 km
right ascension of ascending node: 222.2121°
argument of perigee: 114.6662°
revolutions per day: 14.80132703
mean anomaly at epoch: 245.6267°
orbit number at epoch: 34470

The dashed part of the orbit path shows where the satellite is in the earth's shadow,  

DLR